Year,Month,Day,Hour,Minute,Value (Times are PST for temperature in C)
2021,04,16,13,09,20.80
2021,04,16,13,10,20.90
2021,04,16,13,11,20.90
2021,04,16,13,12,20.90
2021,04,16,13,13,20.90
2021,04,16,13,14,20.90
2021,04,16,13,15,20.90
2021,04,16,13,16,21.00
2021,04,16,13,17,21.00
2021,04,16,13,18,21.10
2021,04,16,13,19,21.10
2021,04,16,13,20,21.10
2021,04,16,13,21,21.10
2021,04,16,13,22,21.10
2021,04,16,13,23,21.20
2021,04,16,13,24,21.20
2021,04,16,13,25,21.10
2021,04,16,13,26,21.00
2021,04,16,13,27,20.90
2021,04,16,13,28,20.90
2021,04,16,13,29,21.00
2021,04,16,13,30,21.10
2021,04,16,13,31,21.10
2021,04,16,13,32,21.10
2021,04,16,13,33,21.10
2021,04,16,13,34,21.10
2021,04,16,13,35,21.10
2021,04,16,13,36,21.10
2021,04,16,13,37,21.10
2021,04,16,13,38,21.20
2021,04,16,13,39,21.20
2021,04,16,13,40,21.30
2021,04,16,13,41,21.30
2021,04,16,13,42,21.20
2021,04,16,13,43,21.20
2021,04,16,13,44,21.20
2021,04,16,13,45,21.20
2021,04,16,13,46,21.30
2021,04,16,13,47,21.30
2021,04,16,13,48,21.30
2021,04,16,13,49,21.20
2021,04,16,13,50,21.30
2021,04,16,13,51,21.30
2021,04,16,13,52,21.40
2021,04,16,13,53,21.40
2021,04,16,13,54,21.40
2021,04,16,13,55,21.40
2021,04,16,13,56,21.30
2021,04,16,13,57,21.20
2021,04,16,13,58,21.20
2021,04,16,13,59,21.20
2021,04,16,14,00,21.10
2021,04,16,14,01,21.20
2021,04,16,14,02,21.20
2021,04,16,14,03,21.20
2021,04,16,14,04,21.30
2021,04,16,14,05,21.30
2021,04,16,14,06,21.30
2021,04,16,14,07,21.20
2021,04,16,14,08,21.10
2021,04,16,14,09,21.10
2021,04,16,14,10,21.00
2021,04,16,14,11,21.00
2021,04,16,14,12,21.00
2021,04,16,14,13,20.90
2021,04,16,14,14,20.90
2021,04,16,14,15,21.00
2021,04,16,14,16,21.00
2021,04,16,14,17,21.10
2021,04,16,14,18,21.10
2021,04,16,14,19,21.20
2021,04,16,14,20,21.30
2021,04,16,14,21,21.20
2021,04,16,14,22,21.10
2021,04,16,14,23,21.10
2021,04,16,14,24,21.00
2021,04,16,14,25,21.00
2021,04,16,14,26,21.00
2021,04,16,14,27,21.00
2021,04,16,14,28,21.00
2021,04,16,14,29,21.00
2021,04,16,14,30,20.90
2021,04,16,14,31,20.90
2021,04,16,14,32,20.90
2021,04,16,14,33,20.90
2021,04,16,14,34,21.00
2021,04,16,14,35,21.10
2021,04,16,14,36,21.10
2021,04,16,14,37,21.10
2021,04,16,14,38,21.20
2021,04,16,14,39,21.30
2021,04,16,14,40,21.30
2021,04,16,14,41,21.40
2021,04,16,14,42,21.40
2021,04,16,14,43,21.40
2021,04,16,14,44,21.40
2021,04,16,14,45,21.40
2021,04,16,14,46,21.30
2021,04,16,14,47,21.30
2021,04,16,14,48,21.30
2021,04,16,14,49,21.30
2021,04,16,14,50,21.30
2021,04,16,14,51,21.40
2021,04,16,14,52,21.40
2021,04,16,14,53,21.40
2021,04,16,14,54,21.30
2021,04,16,14,55,21.30
2021,04,16,14,56,21.20
2021,04,16,14,57,21.20
2021,04,16,14,58,21.10
2021,04,16,14,59,21.00
2021,04,16,15,00,20.90
2021,04,16,15,01,20.80
2021,04,16,15,02,20.80
2021,04,16,15,03,20.80
2021,04,16,15,04,20.80
2021,04,16,15,05,20.80
2021,04,16,15,06,20.80
2021,04,16,15,07,20.80
2021,04,16,15,08,20.80
2021,04,16,15,09,20.90
2021,04,16,15,10,20.90
2021,04,16,15,11,20.90
2021,04,16,15,12,21.00
2021,04,16,15,13,20.90
2021,04,16,15,14,20.90
2021,04,16,15,15,20.80
2021,04,16,15,16,20.80
2021,04,16,15,17,20.80
2021,04,16,15,18,20.80
2021,04,16,15,19,20.80
2021,04,16,15,20,20.80
2021,04,16,15,21,20.80
2021,04,16,15,22,20.80
2021,04,16,15,23,20.90
2021,04,16,15,24,20.90
2021,04,16,15,25,20.90
2021,04,16,15,26,20.80
2021,04,16,15,27,20.80
2021,04,16,15,28,20.80
2021,04,16,15,29,20.80
2021,04,16,15,30,20.80
2021,04,16,15,31,20.80
2021,04,16,15,32,20.70
2021,04,16,15,33,20.70
2021,04,16,15,34,20.70
2021,04,16,15,35,20.70
2021,04,16,15,36,20.70
2021,04,16,15,37,20.70
2021,04,16,15,38,20.70
2021,04,16,15,39,20.70
2021,04,16,15,40,20.60
2021,04,16,15,41,20.60
2021,04,16,15,42,20.60
2021,04,16,15,43,20.60
2021,04,16,15,44,20.60
2021,04,16,15,45,20.70
2021,04,16,15,46,20.80
2021,04,16,15,47,20.90
2021,04,16,15,48,21.00
2021,04,16,15,49,20.90
2021,04,16,15,50,20.90
2021,04,16,15,51,20.90
2021,04,16,15,52,20.90
2021,04,16,15,53,20.90
2021,04,16,15,54,20.90
2021,04,16,15,55,20.90
2021,04,16,15,56,20.90
2021,04,16,15,57,20.90
2021,04,16,15,58,20.90
2021,04,16,15,59,20.90
2021,04,16,16,00,20.80
2021,04,16,16,01,20.80
2021,04,16,16,02,20.70
2021,04,16,16,03,20.70
2021,04,16,16,04,20.70
2021,04,16,16,05,20.60
2021,04,16,16,06,20.50
2021,04,16,16,07,20.50
2021,04,16,16,08,20.50
2021,04,16,16,09,20.50
2021,04,16,16,10,20.50
2021,04,16,16,11,20.60
2021,04,16,16,12,20.50
2021,04,16,16,13,20.60
2021,04,16,16,14,20.60
2021,04,16,16,15,20.60
2021,04,16,16,16,20.50
2021,04,16,16,17,20.50
2021,04,16,16,18,20.50
2021,04,16,16,19,20.40
2021,04,16,16,20,20.50
2021,04,16,16,21,20.50
2021,04,16,16,22,20.50
2021,04,16,16,23,20.40
2021,04,16,16,24,20.50
2021,04,16,16,25,20.50
2021,04,16,16,26,20.50
2021,04,16,16,27,20.50
2021,04,16,16,28,20.50
2021,04,16,16,29,20.60
2021,04,16,16,30,20.60
2021,04,16,16,31,20.60
2021,04,16,16,32,20.60
2021,04,16,16,33,20.60
2021,04,16,16,34,20.70
2021,04,16,16,35,20.70
2021,04,16,16,36,20.80
2021,04,16,16,37,20.90
2021,04,16,16,38,20.90
2021,04,16,16,39,21.00
2021,04,16,16,40,21.00
2021,04,16,16,41,21.10
2021,04,16,16,42,21.20
2021,04,16,16,43,21.20
2021,04,16,16,44,21.20
2021,04,16,16,45,21.30
2021,04,16,16,46,21.30
2021,04,16,16,47,21.30
2021,04,16,16,48,21.30
2021,04,16,16,49,21.20
2021,04,16,16,50,21.20
2021,04,16,16,51,21.30
2021,04,16,16,52,21.30
2021,04,16,16,53,21.30
2021,04,16,16,54,21.30
2021,04,16,16,55,21.40
2021,04,16,16,56,21.40
2021,04,16,16,57,21.40
2021,04,16,16,58,21.40
2021,04,16,16,59,21.30
2021,04,16,17,00,21.30
2021,04,16,17,01,21.30
2021,04,16,17,02,21.30
2021,04,16,17,03,21.20
2021,04,16,17,04,21.20
2021,04,16,17,05,21.20
2021,04,16,17,06,21.20
2021,04,16,17,07,21.30
2021,04,16,17,08,21.30
2021,04,16,17,09,21.30
2021,04,16,17,10,21.30
2021,04,16,17,11,21.30
2021,04,16,17,12,21.30
2021,04,16,17,13,21.30
2021,04,16,17,14,21.30
2021,04,16,17,15,21.40
2021,04,16,17,16,21.40
2021,04,16,17,17,21.40
2021,04,16,17,18,21.40
2021,04,16,17,19,21.30
2021,04,16,17,20,21.30
2021,04,16,17,21,21.30
2021,04,16,17,22,21.30
2021,04,16,17,23,21.30
2021,04,16,17,24,21.30
2021,04,16,17,25,21.40
2021,04,16,17,26,21.40
2021,04,16,17,27,21.30
2021,04,16,17,28,21.30
2021,04,16,17,29,21.30
2021,04,16,17,30,21.30
2021,04,16,17,31,21.30
2021,04,16,17,32,21.30
2021,04,16,17,33,21.20
2021,04,16,17,34,21.20
2021,04,16,17,35,21.10
2021,04,16,17,36,21.10
2021,04,16,17,37,21.10
2021,04,16,17,38,21.10
2021,04,16,17,39,21.00
2021,04,16,17,40,21.00
2021,04,16,17,41,20.90
2021,04,16,17,42,20.90
2021,04,16,17,43,20.90
2021,04,16,17,44,20.90
2021,04,16,17,45,20.80
2021,04,16,17,46,20.80
2021,04,16,17,47,20.80
2021,04,16,17,48,20.80
2021,04,16,17,49,20.80
2021,04,16,17,50,20.80
2021,04,16,17,51,20.80
2021,04,16,17,52,20.80
2021,04,16,17,53,20.80
2021,04,16,17,54,20.80
2021,04,16,17,55,20.90
2021,04,16,17,56,20.90
2021,04,16,17,57,20.90
2021,04,16,17,58,20.90
2021,04,16,17,59,20.90
2021,04,16,18,00,20.90
2021,04,16,18,01,20.90
2021,04,16,18,02,20.90
2021,04,16,18,03,20.90
2021,04,16,18,04,20.90
2021,04,16,18,05,20.80
2021,04,16,18,06,20.80
2021,04,16,18,07,20.70
2021,04,16,18,08,20.60
2021,04,16,18,09,20.70
2021,04,16,18,10,20.70
2021,04,16,18,11,20.70
2021,04,16,18,12,20.60
2021,04,16,18,13,20.60
2021,04,16,18,14,20.50
2021,04,16,18,15,20.40
2021,04,16,18,16,20.40
2021,04,16,18,17,20.30
2021,04,16,18,18,20.30
2021,04,16,18,19,20.30
2021,04,16,18,20,20.30
2021,04,16,18,21,20.30
2021,04,16,18,22,20.30
2021,04,16,18,23,20.30
2021,04,16,18,24,20.30
2021,04,16,18,25,20.20
2021,04,16,18,26,20.20
2021,04,16,18,27,20.20
2021,04,16,18,28,20.20
2021,04,16,18,29,20.20
2021,04,16,18,30,20.30
2021,04,16,18,31,20.30
2021,04,16,18,32,20.30
2021,04,16,18,33,20.30
2021,04,16,18,34,20.30
2021,04,16,18,35,20.30
2021,04,16,18,36,20.20
2021,04,16,18,37,20.20
2021,04,16,18,38,20.20
2021,04,16,18,39,20.20
2021,04,16,18,40,20.10
2021,04,16,18,41,20.00
2021,04,16,18,42,20.00
2021,04,16,18,43,19.90
2021,04,16,18,44,19.90
2021,04,16,18,45,19.90
2021,04,16,18,46,19.90
2021,04,16,18,47,19.80
2021,04,16,18,48,19.80
2021,04,16,18,49,19.70
2021,04,16,18,50,19.60
2021,04,16,18,51,19.50
2021,04,16,18,52,19.40
2021,04,16,18,53,19.30
2021,04,16,18,54,19.20
2021,04,16,18,55,19.20
2021,04,16,18,56,19.20
2021,04,16,18,57,19.20
2021,04,16,18,58,19.10
2021,04,16,18,59,19.10
2021,04,16,19,00,19.10
2021,04,16,19,01,19.10
2021,04,16,19,02,19.00
2021,04,16,19,03,19.00
2021,04,16,19,04,19.00
2021,04,16,19,05,18.90
2021,04,16,19,06,18.90
2021,04,16,19,07,18.90
2021,04,16,19,08,18.90
2021,04,16,19,09,18.90
2021,04,16,19,10,18.90
2021,04,16,19,11,18.90
2021,04,16,19,12,18.90
2021,04,16,19,13,18.90
2021,04,16,19,14,18.90
2021,04,16,19,15,18.90
2021,04,16,19,16,18.90
2021,04,16,19,17,18.80
2021,04,16,19,18,18.80
2021,04,16,19,19,18.80
2021,04,16,19,20,18.80
2021,04,16,19,21,18.80
2021,04,16,19,22,18.80
2021,04,16,19,23,18.70
2021,04,16,19,24,18.70
2021,04,16,19,25,18.70
2021,04,16,19,26,18.70
2021,04,16,19,27,18.70
2021,04,16,19,28,18.70
2021,04,16,19,29,18.70
2021,04,16,19,30,18.70
2021,04,16,19,31,18.60
2021,04,16,19,32,18.60
2021,04,16,19,33,18.60
2021,04,16,19,34,18.60
2021,04,16,19,35,18.60
2021,04,16,19,36,18.60
2021,04,16,19,37,18.60
2021,04,16,19,38,18.60
2021,04,16,19,39,18.60
2021,04,16,19,40,18.60
2021,04,16,19,41,18.60
2021,04,16,19,42,18.50
2021,04,16,19,43,18.50
2021,04,16,19,44,18.40
2021,04,16,19,45,18.40
2021,04,16,19,46,18.40
2021,04,16,19,47,18.30
2021,04,16,19,48,18.30
2021,04,16,19,49,18.30
2021,04,16,19,50,18.20
2021,04,16,19,51,18.20
2021,04,16,19,52,18.20
2021,04,16,19,53,18.10
2021,04,16,19,54,18.10
2021,04,16,19,55,18.00
2021,04,16,19,56,18.00
2021,04,16,19,57,18.00
2021,04,16,19,58,18.00
2021,04,16,19,59,18.00
2021,04,16,20,00,18.00
2021,04,16,20,01,18.00
2021,04,16,20,02,18.00
2021,04,16,20,03,18.00
2021,04,16,20,04,18.00
2021,04,16,20,05,18.00
2021,04,16,20,06,18.00
